Terminal Aerodrome Forecast
Issued by NWS

Current Version | Previous Version | Text Only | Print | Product List | Glossary Off
Versions: 1 2 3 4 5 6 7 8 9 10 11 12 13 14 15 16

000
FTUS41 KILN 170500 RRA
TAFLCK
TAF
KLCK 170543Z 1706/1806 26014G22KT P6SM VCSH OVC010
     FM171300 27013G20KT P6SM OVC015
     FM172200 27010KT P6SM OVC018=

USA.gov is the U.S. government's official web portal to all federal, state and local government web resources and services.